Weather in Kamenka

Russia / Tver Oblast     57°42′43″N   35°24′44″E
temp.,
°C
wind,
m/s
gust,
m/s
humid.,
%
clouds,
%
prec.,
mm/h
press.,
hPa
HPBL,
m
11 april, sun
sun1100:00+5sw4127369 0.0 1020433
03:00+3wnw2697100 0.1 1023422
06:00+2sw129784 0.0 102438
09:00+6sw238070 0.0 1026619
12:00+6ssw2485100 0.0 1028478
15:00+8w1377100 0.1 1029531
18:00+8ene2282100 0.0 102939
21:00+7ese2691100 0.1 1031139
12 april, mon
mon1200:00+6e269199 0.1 1031146
03:00+6sse239359 0.1 103254
06:00+5s26915 0.0 103294
09:00+10s38685 0.0 1032338
12:00+14sse47505 0.0 10321062
15:00+16se574665 0.0 10301419
18:00+13se4958100 0.0 1028774
21:00+10se41270100 0.0 1028693
13 april, tue
tue1300:00+9sse41178100 0.0 1027492
03:00+7se398899 0.0 1026288
06:00+6se2796100 0.0 1025202
09:00+9sse3687100 0.4 1024288
12:00+11sse3578100 0.1 1023434
15:00+15s3565100 0.1 1022708
18:00+13s1278100 0.0 102223
21:00+11sse118687 0.0 102210
14 april, wed
wed1400:00+10s1192100 0.4 102113
03:00+9sse239198 0.4 102050
06:00+8sse279298 0.0 1019133
09:00+12s486884 0.0 1019321
12:00+15ssw396193 0.0 1018795
15:00+17ssw41054100 0.0 10181612
18:00+15ssw246698 0.1 1017236
21:00+10n4692100 0.3 1019289
15 april, thu
thu1500:00+7n3790100 0.0 1020324
03:00+5nne3890100 0.0 1020358
06:00+5nne4990100 0.1 1020385
09:00+5nne4890100 0.4 1020429
12:00+5ne4787100 0.2 1020512
15:00+5nne4887100 0.2 1020622
18:00+4nne51091100 0.0 1021696
21:00+3ne41296100 0.0 1022646